Weather Service Report


202 
ASUS43 KLMK 230010
RWRKY 
KENTUCKY REGIONAL WEATHER ROUNDUP
NATIONAL WEATHER SERVICE LOUISVILLE KY
800 PM EDT TUE JUL 22 2014

NOTE "FAIR" INDICATES FEW OR NO CLOUDS BELOW 12,000 FEET
WITH NO SIGNIFICANT WEATHER AND/OR OBSTRUCTIONS TO VISIBILITY.

KYZ001>023-026-027-061>063-070>075-230100-
WESTERN AND SOUTH CENTRAL KENTUCKY
  
CITY           SKY/WX    TMP DP  RH WIND       PRES   REMARKS
PADUCAH        SUNNY     87  72  60 SW3       30.02S HX  93           
HENDERSON      SUNNY     90  73  58 CALM      30.01S HX  98           
OWENSBORO      SUNNY     89  71  55 NW6       30.02S HX  95           
HOPKINSVILLE   SUNNY     89  69  51 SW6       30.03S HX  94           
BOWLING GREEN  SUNNY     91  65  41 SW6       30.03S HX  93           
GLASGOW        SUNNY     89  66  46 SW3       30.04S HX  92           
$$

KYZ024-025-028>034-038-045-046-053-230100-
NORTH CENTRAL KENTUCKY
  
CITY           SKY/WX    TMP DP  RH WIND       PRES   REMARKS
LOUISVILLE/SDF MOSUNNY   90  70  51 SW8       30.02S HX  95           
LOUISVILLE/LOU PTSUNNY   90  69  50 W5        30.02S HX  94           
FORT KNOX      MOSUNNY   86  76  71 NW2       30.02F HX  96           
$$

KYZ035>037-039>044-047>052-055>060-089>105-230100-
NORTHEAST KENTUCKY
  
CITY           SKY/WX    TMP DP  RH WIND       PRES   REMARKS
LEXINGTON      CLEAR     87  72  60 SW6       30.06S HX  93           
COVINGTON      CLEAR     86  67  52 W6        30.04S                  
FRANKFORT      CLEAR     86  70  58 SW5       30.03F HX  90           
$$

KYZ054-064>069-076>088-106>120-230100-
SOUTHEAST KENTUCKY
  
CITY           SKY/WX    TMP DP  RH WIND       PRES   REMARKS
JACKSON        CLEAR     85  69  58 CALM      30.09S                  
LONDON         CLOUDY    81  71  71 W13       30.09R                  
SOMERSET       LGT RAIN  86  68  54 W6        30.08R                  
MIDDLESBORO    CLEAR     84  71  65 W3        30.09R                  
MONTICELLO     CLEAR     88  77  69 CALM      30.08S HX 100           
$$


Return to Home page


Western Regional Climate Center, wrcc@dri.edu